MDT3 ENBR-ENHD

Flight info

Callsign MDT3
Flight time 0h 18m
Altitude 17000
Route BEGOD
Aircraft CL60/M-SBDE1E2E3FGHIJ1J4J5J7M3RWXYZ/LB1V1D1

Departure

Time 2026-04-22 19:24
Airport Bergen Airport, Flesland (ENBR)

Arrival

Time 2026-04-22 19:42
Airport Haugesund Airport, Karmøy (ENHD)
Time Latitude Longitude Altitude Speed Heading
2026-04-22 19:08 60.29087 5.22570 172 ft 0 kts 32°
2026-04-22 19:21 60.29092 5.22590 173 ft 3 kts 91°
2026-04-22 19:22 60.29069 5.22573 172 ft 8 kts 249°
2026-04-22 19:22 60.29043 5.22487 171 ft 7 kts 213°
2026-04-22 19:22 60.29014 5.22381 168 ft 11 kts 211°
2026-04-22 19:22 60.28934 5.22355 168 ft 12 kts 243°
2026-04-22 19:23 60.28917 5.22168 164 ft 11 kts 262°
2026-04-22 19:23 60.28902 5.21990 161 ft 5 kts 261°
2026-04-22 19:23 60.28920 5.21954 161 ft 0 kts 351°
2026-04-22 19:24 60.29158 5.21875 158 ft 90 kts 349°
2026-04-22 19:24 60.30047 5.21589 259 ft 157 kts 351°
2026-04-22 19:24 60.31119 5.21181 1047 ft 168 kts 336°
2026-04-22 19:25 60.31829 5.19149 1601 ft 209 kts 281°
2026-04-22 19:25 60.31601 5.17138 2060 ft 239 kts 246°
2026-04-22 19:25 60.29707 5.14110 2978 ft 278 kts 204°
2026-04-22 19:25 60.27832 5.13220 3892 ft 289 kts 192°
2026-04-22 19:26 60.25839 5.12606 4847 ft 295 kts 187°
2026-04-22 19:26 60.24470 5.12544 5718 ft 305 kts 181°
2026-04-22 19:26 60.21726 5.12615 7999 ft 302 kts 182°
2026-04-22 19:26 60.19660 5.12665 9506 ft 305 kts 182°
2026-04-22 19:27 60.17541 5.12723 10765 ft 316 kts 182°
2026-04-22 19:27 60.15201 5.12779 11358 ft 350 kts 181°
2026-04-22 19:27 60.13558 5.12824 11958 ft 362 kts 182°
2026-04-22 19:27 60.10310 5.12473 14127 ft 350 kts 179°
2026-04-22 19:28 60.07894 5.12697 15278 ft 355 kts 175°
2026-04-22 19:28 60.05477 5.13178 16187 ft 366 kts 174°
2026-04-22 19:28 60.02913 5.13621 16886 ft 382 kts 175°
2026-04-22 19:28 60.00153 5.13949 17279 ft 396 kts 176°
2026-04-22 19:29 59.98378 5.14060 17350 ft 395 kts 177°
2026-04-22 19:29 59.95566 5.14210 17365 ft 392 kts 177°
2026-04-22 19:29 59.92835 5.14356 17365 ft 391 kts 177°
2026-04-22 19:29 59.90134 5.14501 17367 ft 390 kts 177°
2026-04-22 19:30 59.88317 5.14597 17369 ft 390 kts 177°
2026-04-22 19:30 59.84733 5.14786 17334 ft 380 kts 177°
2026-04-22 19:30 59.82138 5.14921 17125 ft 364 kts 177°
2026-04-22 19:30 59.79665 5.15050 16784 ft 354 kts 178°
2026-04-22 19:31 59.77237 5.15177 16322 ft 348 kts 178°
2026-04-22 19:31 59.74840 5.15303 15886 ft 342 kts 178°
2026-04-22 19:31 59.72475 5.15427 15421 ft 339 kts 178°
2026-04-22 19:31 59.70124 5.15550 14943 ft 335 kts 178°
2026-04-22 19:32 59.67828 5.15670 14513 ft 332 kts 179°
2026-04-22 19:32 59.65517 5.15801 14061 ft 328 kts 177°
2026-04-22 19:32 59.63316 5.16682 13622 ft 325 kts 158°
2026-04-22 19:32 59.61348 5.18803 13169 ft 321 kts 147°
2026-04-22 19:33 59.59455 5.21101 12756 ft 318 kts 147°
2026-04-22 19:33 59.57579 5.23358 12320 ft 317 kts 147°
2026-04-22 19:33 59.55675 5.25645 11905 ft 314 kts 147°
2026-04-22 19:33 59.53825 5.27864 11494 ft 311 kts 147°
2026-04-22 19:34 59.51970 5.30086 11068 ft 309 kts 147°
2026-04-22 19:34 59.50145 5.32269 10672 ft 306 kts 147°
2026-04-22 19:34 59.48343 5.34423 10272 ft 305 kts 147°
2026-04-22 19:34 59.46512 5.36597 9844 ft 306 kts 149°
2026-04-22 19:35 59.44536 5.37988 9343 ft 305 kts 169°
2026-04-22 19:35 59.42424 5.38694 8833 ft 304 kts 170°
2026-04-22 19:35 59.40350 5.39399 8341 ft 303 kts 170°
2026-04-22 19:35 59.38287 5.40104 7852 ft 302 kts 170°
2026-04-22 19:36 59.36209 5.40815 7368 ft 301 kts 170°
2026-04-22 19:36 59.34148 5.41521 6888 ft 300 kts 170°
2026-04-22 19:36 59.32097 5.41812 6393 ft 296 kts 190°
2026-04-22 19:36 59.30277 5.40285 5855 ft 282 kts 224°
2026-04-22 19:37 59.28952 5.37484 5122 ft 281 kts 231°
2026-04-22 19:37 59.27794 5.34512 4482 ft 268 kts 252°
2026-04-22 19:37 59.27008 5.31278 4077 ft 267 kts 236°
2026-04-22 19:37 59.25391 5.29332 3401 ft 285 kts 191°
2026-04-22 19:38 59.23498 5.30037 2601 ft 285 kts 140°
2026-04-22 19:38 59.22695 5.33127 2287 ft 240 kts 80°
2026-04-22 19:38 59.23097 5.35939 2261 ft 201 kts 41°
2026-04-22 19:38 59.24269 5.37050 1911 ft 182 kts 359°
2026-04-22 19:39 59.25460 5.36302 2027 ft 184 kts 332°
2026-04-22 19:39 59.26503 5.34953 2171 ft 172 kts 327°
2026-04-22 19:39 59.27389 5.33596 2126 ft 154 kts 327°
2026-04-22 19:39 59.27938 5.32751 1893 ft 149 kts 327°
2026-04-22 19:40 59.28956 5.31229 1472 ft 130 kts 327°
2026-04-22 19:40 59.29612 5.30165 1213 ft 112 kts 323°
2026-04-22 19:40 59.30151 5.29145 940 ft 104 kts 321°
2026-04-22 19:40 59.30691 5.28165 773 ft 108 kts 322°
2026-04-22 19:41 59.31273 5.27177 732 ft 116 kts 322°
2026-04-22 19:41 59.31850 5.26123 624 ft 108 kts 320°
2026-04-22 19:41 59.32383 5.25091 505 ft 108 kts 318°
2026-04-22 19:41 59.32915 5.24052 350 ft 106 kts 317°
2026-04-22 19:42 59.33439 5.23008 255 ft 108 kts 317°
2026-04-22 19:42 59.33955 5.21977 85 ft 101 kts 316°
2026-04-22 19:42 59.34359 5.21176 73 ft 56 kts 314°
2026-04-22 19:42 59.34508 5.20909 76 ft 10 kts 300°
2026-04-22 19:43 59.34367 5.21156 73 ft 10 kts 134°
2026-04-22 19:43 59.34339 5.21291 72 ft 13 kts 53°
2026-04-22 19:43 59.34378 5.21359 72 ft 11 kts 37°
2026-04-22 19:44 59.34418 5.21424 72 ft 8 kts
2026-04-22 19:44 59.34477 5.21402 71 ft 6 kts 12°
2026-04-22 19:44 59.34517 5.21420 70 ft 0 kts 12°